This demonstration page uses our WeatherBlox Daily Observations layout. Learn more.

Left ArrowRight Arrow

Hourly Observations for July 28, 2021

Temp ( °F °C ) Dew Point ( °F °C ) Humidity (%) Winds ( mph kmh ) Pressure ( in mb ) Visibility ( mi km ) Precip ( " mm )
12:53 am 00:53 Clear 69 20.6 68 20 96 96 N N/A 30.04 1017 7 11 N/A
1:53 am 01:53 Clear with Mist and Fog 68 20 68 20 100 100 N N/A 30.05 1018 5 8 N/A
2:53 am 02:53 Clear with Mist and Fog 68 20 68 20 100 100 N N/A 30.04 1017 5 8 N/A
3:26 am 03:26 Clear with Mist and Fog 67 19.4 67 19.4 100 100 N N/A 30.05 1018 3 4 N/A
3:34 am 03:34 Clear with Mist and Fog 67 19.4 67 19.4 100 100 N N/A 30.05 1018 4 6 N/A
3:53 am 03:53 Clear with Mist and Fog 67 19.4 67 19.4 100 100 N N/A 30.05 1018 5 8 N/A
4:53 am 04:53 Clear with Mist and Fog 67 19.4 67 19.4 100 100 N N/A 30.06 1018 5 8 N/A
5:02 am 05:02 Clear with Mist and Fog 65 18.3 65 18.3 100 100 N N/A 30.06 1018 2 3 N/A
5:12 am 05:12 Clear with Mist and Fog 66 18.9 66 18.9 100 100 N N/A 30.07 1018 3 5 N/A
5:42 am 05:42 Mostly Clear with Mist and Fog 65 18.3 65 18.3 100 100 N N/A 30.06 1018 3 4 N/A
5:49 am 05:49 Partly Cloudy with Mist and Fog 66 19 66 19 100 100 N N/A 30.06 1018 1 2 N/A
5:53 am 05:53 Mostly Clear with Mist and Fog 66 18.9 66 18.9 100 100 N N/A 30.06 1018 2 3 N/A
6:08 am 06:08 Mostly Clear with Mist and Fog 66 18.9 66 18.9 100 100 N N/A 30.07 1018 2 2 N/A
6:13 am 06:13 Clear with Mist and Fog 66 18.9 66 18.9 100 100 N N/A 30.06 1018 3 5 N/A
6:26 am 06:26 Clear with Mist and Fog 65 18.3 65 18.3 100 100 N N/A 30.07 1018 2 3 N/A
6:37 am 06:37 Sunny with Mist and Fog 65 18.3 65 18.3 100 100 N N/A 30.07 1018 3 5 N/A
6:53 am 06:53 Sunny with Mist and Fog 65 18.3 65 18.3 100 100 N N/A 30.07 1018 2 2 N/A
7:02 am 07:02 Sunny with Mist and Fog 66 18.9 66 18.9 100 100 N N/A 30.08 1019 3 4 N/A
7:09 am 07:09 Sunny with Mist and Fog 66 18.9 66 18.9 100 100 N N/A 30.08 1019 6 10 N/A
7:53 am 07:53 Sunny with Mist and Fog 70 21.1 69 20.6 97 97 N N/A 30.09 1019 5 8 N/A
8:53 am 08:53 Sunny 74 23.3 71 21.7 91 91 N N/A 30.09 1019 7 11 N/A
9:53 am 09:53 Sunny 78 25.6 71 21.7 79 79 N N/A 30.08 1019 10 16 N/A
10:53 am 10:53 Sunny 83 28.3 72 22.2 70 70 N N/A 30.05 1018 10 16 N/A
11:53 am 11:53 Mostly Cloudy 83 28.3 71 21.7 67 67 N 6 9 30.06 1018 10 16 N/A
12:53 pm 12:53 Mostly Sunny 86 30 70 21.1 59 59 WNW 8 13 30.07 1018 10 16 N/A
1:53 pm 13:53 Partly Cloudy 87 30.6 70 21.1 57 57 NW 6 9 30.05 1018 10 16 N/A
2:53 pm 14:53 Mostly Sunny 88 31.1 70 21.1 55 55 VRB 3 6 30.04 1017 10 16 N/A
3:53 pm 15:53 Partly Cloudy 87 30.6 70 21.1 57 57 NNW 5 7 30.02 1017 10 16 N/A
4:53 pm 16:53 Mostly Cloudy 89 31.7 71 21.7 55 55 undefined N/A 30.01 1016 10 16 N/A
5:53 pm 17:53 Mostly Cloudy 88 31.1 71 21.7 57 57 NW 5 7 30.01 1016 10 16 N/A
6:53 pm 18:53 Mostly Cloudy 87 30.6 73 22.8 63 63 WNW 6 9 30.01 1016 10 16 N/A
7:53 pm 19:53 Sunny 84 28.9 73 22.8 70 70 VRB 5 7 30.01 1016 10 16 N/A
8:53 pm 20:53 Sunny 78 25.6 75 23.9 90 90 N N/A 30.00 1016 10 16 N/A
9:53 pm 21:53 Clear 75 23.9 73 22.8 94 94 N N/A 30.01 1016 10 16 N/A
10:53 pm 22:53 Clear 74 23.3 72 22.2 94 94 N N/A 30.00 1016 9 14 N/A
11:53 pm 23:53 Clear 73 22.8 72 22.2 96 96 N N/A 30.00 1016 9 14 N/A

Powered by AerisWeather